User: anonymous   Login
Location: Unspecified
(0.0000°N, 0.0000°E)
Time: 09:31:32
(UTC+00:00)
Language:

Kosmos-1333 - Orbit

View from above orbital plane
View from above orbital plane
View from above satellite
View from above satellite

Ground track
Ground track

The orbit data is extracted from the following two-line orbital elements,

1 13033U 82003A   18024.18446010  .00000045  00000-0  31645-4 0  9994
2 13033  82.9416 270.1163 0033590  77.9915  35.0006 13.73203828805655
Epoch (UTC): 24 January 2018 04:25:37
Eccentricity: 0.0033590
inclination: 82.9416°
perigee height: 963 km
apogee height: 1013 km
right ascension of ascending node: 270.1163°
argument of perigee: 77.9915°
revolutions per day: 13.73203828
mean anomaly at epoch: 35.0006°
orbit number at epoch: 80565

The dashed part of the orbit path shows where the satellite is in the earth's shadow,  

DLR